Nice, France

4:35 AM CEST on September 23, 2017 (GMT +0200)
Nice-Cote d'Azur

Weather History for LFMN - January, 2014

Change the Weather History Date:

Wednesday, January 8, 2014

  Actual Average Record
Temperature  
Mean Temperature 54 °F -  
Max Temperature 59 °F 54 °F 64 °F (2007)
Min Temperature 48 °F 39 °F 39 °F (2006)
Degree Days  
Heating Degree Days 12    
Growing Degree Days 4 (Base 50)    
Moisture  
Dew Point 43 °F    
Average Humidity 69    
Maximum Humidity 88    
Minimum Humidity 46    
Precipitation  
Precipitation 0.00 in 0.11 in - ()
Sea Level Pressure  
Sea Level Pressure 30.31 in    
Wind  
Wind Speed 9 mph ()    
Max Wind Speed 15 mph    
Max Gust Speed -    
Visibility 8.4 miles    
Events      
Averages and records for this station are not official NWS values.
T = Trace of Precipitation, MM = Missing Value Source: Averaged Metar Reports

Daily Weather History Graph

Daily Weather History Graph

Search for Another Location

Airport or City:

Trip Planner

Search our weather history database for the weather conditions in past years. The results will help you decide how hot, cold, wet, or windy it might be!

Date:

Astronomy

Jan. 08, 2014 Rise Set
Actual Time 8:04 AM CET 5:11 PM CET
Civil Twilight 7:31 AM CET 5:44 PM CET
Nautical Twilight 6:56 AM CET 6:19 PM CET
Astronomical Twilight 6:21 AM CET 6:54 PM CET
Moon 12:01 PM CET (1/8) 12:45 AM CET (1/8)
Length of Visible Light 10h 12m
Length of Day
9h 07m
First Quarter, 53% of the Moon is Illuminated
Jan 8
First Quarter
Jan 16
Full
Jan 24
Last Quarter
Jan 30
New
Feb 6
First Quarter

Hourly Weather History & Observations

Time (CET) Temp. Dew Point Humidity Pressure Visibility Wind Dir Wind Speed Gust Speed Precip Events Conditions
12:00 AM 51 °F 42 °F 61% 30.31 in 9 mi NNW 9.2 mph - -   Overcast
12:00 AM 51.8 °F 41.0 °F 67% 30.30 in 6.2 mi NNW 9.2 mph - N/A   Overcast
12:30 AM 50.0 °F 41.0 °F 71% 30.30 in 6.2 mi NNW 10.4 mph - N/A   Overcast
1:00 AM 51 °F 42 °F 61% 30.31 in 9 mi NNW 11.5 mph - -   Overcast
1:00 AM 51.8 °F 41.0 °F 67% 30.30 in 6.2 mi NNW 10.4 mph - N/A   Mostly Cloudy
1:30 AM 50.0 °F 41.0 °F 71% 30.30 in 6.2 mi NNW 9.2 mph - N/A   Mostly Cloudy
2:00 AM 51 °F 41 °F 60% 30.31 in 9 mi NNW 10.4 mph - -   Overcast
2:00 AM 50.0 °F 41.0 °F 71% 30.30 in 6.2 mi NNW 10.4 mph - N/A   Mostly Cloudy
2:30 AM 50.0 °F 41.0 °F 71% 30.30 in 6.2 mi NNW 11.5 mph - N/A   Mostly Cloudy
3:00 AM 50 °F 41 °F 62% 30.32 in 9 mi NNW 12.7 mph - -   Mostly Cloudy
3:00 AM 50.0 °F 41.0 °F 71% 30.30 in 6.2 mi NNW 12.7 mph - N/A   Mostly Cloudy
3:30 AM 50.0 °F 41.0 °F 71% 30.30 in 6.2 mi NNW 13.8 mph - N/A   Mostly Cloudy
4:00 AM 50 °F 40 °F 59% 30.31 in 9 mi NNW 10.4 mph - -   Mostly Cloudy
4:00 AM 50.0 °F 41.0 °F 71% 30.30 in 6.2 mi NNW 10.4 mph - N/A   Mostly Cloudy
4:30 AM 50.0 °F 41.0 °F 71% 30.30 in 6.2 mi NNW 11.5 mph - N/A   Mostly Cloudy
5:00 AM 50 °F 40 °F 59% 30.30 in 9 mi NNW 13.8 mph - -   Mostly Cloudy
5:00 AM 50.0 °F 39.2 °F 66% 30.30 in 6.2 mi NNW 13.8 mph - N/A   Mostly Cloudy
5:30 AM 50.0 °F 39.2 °F 66% 30.30 in 6.2 mi NW 12.7 mph - N/A   Mostly Cloudy
6:00 AM 49 °F 40 °F 61% 30.31 in 9 mi NW 12.7 mph - -   Mostly Cloudy
6:00 AM 50.0 °F 39.2 °F 66% 30.30 in 6.2 mi NW 12.7 mph - N/A   Mostly Cloudy
6:30 AM 48.2 °F 39.2 °F 71% 30.30 in 6.2 mi NNW 12.7 mph - N/A   Mostly Cloudy
7:00 AM 48 °F 39 °F 61% 30.32 in 9 mi NW 15.0 mph - -   Mostly Cloudy
7:00 AM 48.2 °F 39.2 °F 71% 30.30 in 6.2 mi NNW 13.8 mph - N/A   Scattered Clouds
7:30 AM 48.2 °F 39.2 °F 71% 30.30 in 6.2 mi NW 13.8 mph - N/A   Scattered Clouds
8:00 AM 48 °F 39 °F 61% 30.32 in 19 mi NNW 15.0 mph - -   Mostly Cloudy
8:00 AM 48.2 °F 39.2 °F 71% 30.30 in 6.2 mi NNW 13.8 mph - N/A   Mostly Cloudy
8:30 AM 48.2 °F 39.2 °F 71% 30.30 in 6.2 mi NNW 13.8 mph - N/A   Mostly Cloudy
9:00 AM 48 °F 39 °F 62% 30.34 in 19 mi NNW 15.0 mph - -   Mostly Cloudy
9:00 AM 48.2 °F 39.2 °F 71% 30.33 in 6.2 mi NNW 15.0 mph - N/A   Mostly Cloudy
9:30 AM 48.2 °F 39.2 °F 71% 30.33 in 6.2 mi NNW 13.8 mph - N/A   Mostly Cloudy
10:00 AM 49 °F 39 °F 58% 30.36 in 25 mi NNW 12.7 mph - -   Mostly Cloudy
10:00 AM 48.2 °F 39.2 °F 71% 30.33 in 6.2 mi NNW 13.8 mph - N/A   Mostly Cloudy
10:30 AM 50.0 °F 39.2 °F 66% 30.36 in 6.2 mi NNW 12.7 mph - N/A   Mostly Cloudy
11:00 AM 51 °F 40 °F 55% 30.37 in 25 mi NNW 12.7 mph - -   Mostly Cloudy
11:00 AM 50.0 °F 39.2 °F 66% 30.36 in 6.2 mi NNW 12.7 mph - N/A   Mostly Cloudy
12:00 PM 53 °F 40 °F 52% 30.35 in 19 mi NNW 11.5 mph - -   Mostly Cloudy
12:00 PM 53.6 °F 41.0 °F 62% 30.33 in 6.2 mi NNW 11.5 mph - N/A   Mostly Cloudy
1:00 PM 56 °F 41 °F 46% 30.33 in 19 mi NW 8.1 mph - -   Mostly Cloudy
1:00 PM 55.4 °F 41.0 °F 58% 30.30 in 6.2 mi NW 8.1 mph - N/A   Scattered Clouds
1:30 PM 57.2 °F 42.8 °F 59% 30.30 in 6.2 mi NW 5.8 mph - N/A   Mostly Cloudy
2:00 PM 58 °F 46 °F 54% 30.31 in 19 mi WSW 3.5 mph - -   Partly Cloudy
2:00 PM 59.0 °F 46.4 °F 63% 30.30 in 6.2 mi Variable 3.5 mph - N/A   Mostly Cloudy
2:22 PM 59.0 °F 46.4 °F 63% 30.30 in 6.2 mi Variable 2.3 mph - N/A   Mostly Cloudy
3:00 PM 57 °F 48 °F 64% 30.31 in 19 mi SSW 3.5 mph - -   Partly Cloudy
3:00 PM 57.2 °F 48.2 °F 72% 30.30 in 6.2 mi SSW 3.5 mph - N/A   Mostly Cloudy
3:30 PM 57.2 °F 50.0 °F 77% 30.30 in 6.2 mi South 5.8 mph - N/A   Mostly Cloudy
4:00 PM 57 °F 51 °F 74% 30.31 in 19 mi SW 3.5 mph - -   Scattered Clouds
4:00 PM 57.2 °F 50.0 °F 77% 30.30 in 6.2 mi SSW 3.5 mph - N/A   Mostly Cloudy
4:30 PM 55.4 °F 50.0 °F 82% 30.30 in 6.2 mi WSW 2.3 mph - N/A   Mostly Cloudy
4:53 PM 55.4 °F 50.0 °F 82% 30.30 in 6.2 mi WSW 3.5 mph - N/A   Mostly Cloudy
5:00 PM 54 °F 49 °F 79% 30.30 in 19 mi West 2.3 mph - -   Scattered Clouds
5:30 PM 53.6 °F 50.0 °F 88% 30.30 in 6.2 mi West 3.5 mph - N/A   Mostly Cloudy
6:00 PM 54 °F 51 °F 84% 30.31 in 19 mi West 3.5 mph - -   Partly Cloudy
6:00 PM 53.6 °F 50.0 °F 88% 30.30 in 6.2 mi West 3.5 mph - N/A   Mostly Cloudy
6:30 PM 53.6 °F 50.0 °F 88% 30.30 in 6.2 mi NW 3.5 mph - N/A   Scattered Clouds
7:00 PM 52 °F 47 °F 76% 30.31 in 9 mi NW 6.9 mph - -   Mostly Cloudy
7:00 PM 51.8 °F 46.4 °F 82% 30.30 in 6.2 mi NW 5.8 mph - N/A   Scattered Clouds
7:30 PM 51.8 °F 46.4 °F 82% 30.30 in 6.2 mi NW 6.9 mph - N/A   Scattered Clouds
8:00 PM 53 °F 46 °F 68% 30.32 in 7 mi NNW 6.9 mph - -   Mostly Cloudy
8:00 PM 51.8 °F 46.4 °F 82% 30.30 in 6.2 mi NNW 8.1 mph - N/A   Mostly Cloudy
8:30 PM 51.8 °F 44.6 °F 76% 30.30 in 6.2 mi NNW 8.1 mph - N/A   Mostly Cloudy
9:00 PM 52 °F 45 °F 68% 30.33 in 7 mi NNW 9.2 mph - -   Mostly Cloudy
9:00 PM 51.8 °F 44.6 °F 76% 30.30 in 6.2 mi NNW 10.4 mph - N/A   Mostly Cloudy
9:30 PM 51.8 °F 44.6 °F 76% 30.30 in 6.2 mi NNW 10.4 mph - N/A   Mostly Cloudy
10:00 PM 51 °F 44 °F 68% 30.32 in 9 mi NW 11.5 mph - -   Mostly Cloudy
10:00 PM 51.8 °F 42.8 °F 71% 30.30 in 6.2 mi NW 10.4 mph - N/A   Mostly Cloudy
10:30 PM 51.8 °F 42.8 °F 71% 30.30 in 6.2 mi NW 12.7 mph - N/A   Mostly Cloudy
11:00 PM 50 °F 42 °F 67% 30.32 in 9 mi NNW 12.7 mph - -   Mostly Cloudy
11:00 PM 50.0 °F 42.8 °F 76% 30.30 in 6.2 mi NNW 12.7 mph - N/A   Mostly Cloudy
11:30 PM 50.0 °F 41.0 °F 71% 30.30 in 6.2 mi NNW 11.5 mph - N/A   Mostly Cloudy